Date String (YYYY-MM-DD hh:mm:ss) UTC,Instrument flags,absolute air pressure of the measurement (hPa),sample flow rate (lpm),inlet stack bypass flow (lpm),air temperature of the measurement (°C),ambient temperature measured by the external sensor (°C),aerosol sample conditioner tube jacket temperature (°C),OPC LED temperature (°C),internal box temperature (°C),relative humidity of the measurement (%),span deviation,mass concentration of particles derived from Lorenz-Mie calculation of OPC scattering (μg/m³),mass concentration of particles derived from Lorenz-Mie calculation of OPC scattering (μg/m³),mass concentration of particles derived from Lorenz-Mie calculation of OPC scattering (μg/m³)
DateTimeUTC,F1_M11,P_M11,Q1_M11,Q2_M11,T1_M11,T2_M11,T3_M11,T4_M11,T5_M11,U1_M11,ZSPAN_M11,X0_M11,X2_M11,X1_M11
2024-04-03 18:00:00,SystemResetWarning,0830.0,5.00,000.00,024.4,023.8,000.0,032.7,026.2,010.6,0000.0,0007.73,0003.41,0002.06
2024-04-03 18:01:00,SystemResetWarning,0830.1,5.00,000.00,024.4,023.8,000.0,032.7,026.2,010.6,0000.0,0007.57,0003.38,0002.07
2024-04-03 18:02:00,SystemResetWarning,0830.1,5.00,000.00,024.4,023.8,000.0,032.7,026.2,010.6,0000.0,0007.48,0003.35,0002.09
2024-04-03 18:03:00,SystemResetWarning,0830.1,5.00,000.00,024.4,023.9,000.0,032.7,026.2,010.8,0000.0,0007.40,0003.31,0002.07
2024-04-03 18:04:00,SystemResetWarning,0830.1,5.00,000.00,024.4,023.9,000.0,032.7,026.3,010.9,0000.0,0007.33,0003.28,0002.07
2024-04-03 18:05:00,SystemResetWarning,0830.1,5.00,000.00,024.4,023.9,000.0,032.7,026.3,010.5,0000.0,0007.04,0003.25,0002.07
2024-04-03 18:06:00,SystemResetWarning,0830.1,5.00,000.00,024.5,023.9,000.0,032.7,026.3,010.7,0000.0,0006.87,0003.23,0002.07
2024-04-03 18:07:00,SystemResetWarning,0830.0,5.00,000.00,024.5,023.9,000.0,032.8,026.3,010.7,0000.0,0006.68,0003.20,0002.06
2024-04-03 18:08:00,SystemResetWarning,0830.1,5.00,000.00,024.5,024.0,000.0,032.8,026.3,010.9,0000.0,0007.22,0003.22,0002.06
2024-04-03 18:09:00,SystemResetWarning,0830.0,5.00,000.00,024.5,024.0,000.0,032.8,026.3,011.4,0000.0,0007.16,0003.22,0002.06
2024-04-03 18:10:00,SystemResetWarning,0830.0,4.99,000.00,024.5,024.0,000.0,032.8,026.4,010.8,0000.0,0008.05,0003.25,0002.06
2024-04-03 18:11:00,SystemResetWarning,0830.0,4.99,000.00,024.6,024.0,000.0,032.8,026.3,011.0,0000.0,0008.16,0003.29,0002.07
2024-04-03 18:12:00,SystemResetWarning,0830.0,5.00,000.00,024.6,024.0,000.0,032.8,026.4,010.7,0000.0,0008.65,0003.29,0002.07
2024-04-03 18:13:00,SystemResetWarning,0830.0,5.01,000.00,024.6,024.0,000.0,032.9,026.4,010.6,0000.0,0008.81,0003.29,0002.06
2024-04-03 18:14:00,SystemResetWarning,0830.0,5.00,000.00,024.6,024.1,000.0,032.9,026.4,011.9,0000.0,0008.56,0003.28,0002.06
2024-04-03 18:15:00,SystemResetWarning,0830.0,4.99,000.00,024.6,024.1,000.0,032.9,026.4,011.1,0000.0,0008.49,0003.29,0002.06
2024-04-03 18:16:00,SystemResetWarning,0830.0,5.00,000.00,024.6,024.1,000.0,032.9,026.4,010.8,0000.0,0008.45,0003.27,0002.06
2024-04-03 18:17:00,SystemResetWarning,0830.0,5.01,000.00,024.6,024.1,000.0,032.9,026.4,011.0,0000.0,0008.41,0003.27,0002.08
2024-04-03 18:18:00,SystemResetWarning,0830.0,5.01,000.00,024.7,024.1,000.0,032.9,026.5,010.9,0000.0,0008.42,0003.28,0002.10
2024-04-03 18:19:00,SystemResetWarning,0830.0,5.00,000.00,024.7,024.1,000.0,033.0,026.5,010.7,0000.0,0008.02,0003.23,0002.11
2024-04-03 18:20:00,SystemResetWarning,0830.0,5.00,000.00,024.7,024.1,000.0,033.0,026.5,009.6,0000.0,0008.26,0003.24,0002.11
2024-04-03 18:21:00,SystemResetWarning,0830.0,5.00,000.00,024.7,024.2,000.0,033.0,026.5,009.4,0000.0,0007.68,0003.23,0002.10
2024-04-03 18:22:00,SystemResetWarning,0830.0,5.00,000.00,024.7,024.2,000.0,033.0,026.6,009.2,0000.0,0007.53,0003.19,0002.07
2024-04-03 18:23:00,SystemResetWarning,0829.9,5.00,000.00,024.7,024.2,000.0,033.0,026.6,009.8,0000.0,0007.10,0003.19,0002.05
2024-04-03 18:24:00,SystemResetWarning,0829.8,5.00,000.00,024.7,024.2,000.0,033.0,026.6,010.3,0000.0,0006.78,0003.20,0002.03
2024-04-03 18:25:00,SystemResetWarning,0829.7,4.99,000.00,024.8,024.2,000.0,033.0,026.6,010.9,0000.0,0006.64,0003.16,0002.02
2024-04-03 18:26:00,SystemResetWarning,0829.7,5.00,000.00,024.8,024.2,000.0,033.1,026.6,011.0,0000.0,0006.58,0003.14,0002.00
2024-04-03 18:27:00,SystemResetWarning,0829.7,5.00,000.00,024.8,024.3,000.0,033.1,026.6,010.6,0000.0,0006.69,0003.16,0001.98
2024-04-03 18:28:00,SystemResetWarning,0829.8,5.01,000.00,024.8,024.3,000.0,033.1,026.6,010.6,0000.0,0006.87,0003.19,0001.99
2024-04-03 18:29:00,SystemResetWarning,0829.8,5.00,000.00,024.8,024.3,000.0,033.1,026.6,010.4,0000.0,0007.02,0003.22,0001.98
2024-04-03 18:30:00,SystemResetWarning,0829.8,4.99,000.00,024.9,024.3,000.0,033.1,026.7,010.5,0000.0,0007.02,0003.22,0001.97
2024-04-03 18:31:00,SystemResetWarning,0829.8,5.00,000.00,024.9,024.3,000.0,033.1,026.7,010.7,0000.0,0007.00,0003.24,0001.96
2024-04-03 18:32:00,SystemResetWarning,0829.8,4.99,000.00,024.9,024.3,000.0,033.2,026.7,009.7,0000.0,0006.34,0003.22,0001.96
2024-04-03 18:33:00,SystemResetWarning,0829.7,4.99,000.00,024.9,024.3,000.0,033.2,026.7,009.9,0000.0,0006.59,0003.26,0001.98
2024-04-03 18:34:00,SystemResetWarning,0829.8,5.01,000.00,024.9,024.3,000.0,033.2,026.7,010.5,0000.0,0006.35,0003.27,0001.98
2024-04-03 18:35:00,SystemResetWarning,0829.8,5.01,000.00,024.9,024.3,000.0,033.2,026.7,010.1,0000.0,0006.69,0003.28,0001.99
2024-04-03 18:36:00,SystemResetWarning,0829.8,4.99,000.00,024.9,024.3,000.0,033.2,026.7,010.2,0000.0,0006.97,0003.30,0002.01
2024-04-03 18:37:00,SystemResetWarning,0829.7,5.00,000.00,024.9,024.4,000.0,033.2,026.7,010.4,0000.0,0007.16,0003.33,0002.04
2024-04-03 18:38:00,SystemResetWarning,0829.7,5.00,000.00,024.9,024.4,000.0,033.2,026.7,009.8,0000.0,0007.28,0003.34,0002.05
2024-04-03 18:39:00,SystemResetWarning,0829.7,5.00,000.00,025.0,024.4,000.0,033.3,026.8,010.4,0000.0,0007.42,0003.34,0002.03
2024-04-03 18:40:00,SystemResetWarning,0829.7,5.01,000.00,025.0,024.4,000.0,033.3,026.8,010.1,0000.0,0007.74,0003.34,0002.02
2024-04-03 18:41:00,SystemResetWarning,0829.7,5.01,000.00,025.0,024.4,000.0,033.3,026.8,009.6,0000.0,0007.71,0003.33,0002.01
2024-04-03 18:42:00,SystemResetWarning,0829.7,5.00,000.00,025.0,024.4,000.0,033.3,026.8,009.3,0000.0,0007.66,0003.30,0002.00
2024-04-03 18:43:00,SystemResetWarning,0829.8,5.00,000.00,025.0,024.4,000.0,033.3,026.8,009.4,0000.0,0007.55,0003.27,0001.98
2024-04-03 18:44:00,SystemResetWarning,0829.7,4.99,000.00,025.0,024.4,000.0,033.3,026.8,009.4,0000.0,0007.40,0003.23,0001.96
2024-04-03 18:45:00,SystemResetWarning,0829.7,5.00,000.00,025.0,024.5,000.0,033.3,026.9,009.6,0000.0,0007.39,0003.22,0001.96
2024-04-03 18:46:00,SystemResetWarning,0829.7,5.02,000.00,025.1,024.5,000.0,033.4,026.9,010.4,0000.0,0007.19,0003.20,0001.98
2024-04-03 18:47:00,SystemResetWarning,0829.7,5.00,000.00,025.1,024.5,000.0,033.4,026.9,010.3,0000.0,0006.84,0003.20,0001.98
2024-04-03 18:48:00,SystemResetWarning,0829.8,5.00,000.00,025.1,024.5,000.0,033.4,026.9,010.4,0000.0,0006.85,0003.23,0001.97
2024-04-03 18:49:00,SystemResetWarning,0829.7,5.00,000.00,025.1,024.5,000.0,033.4,026.9,010.9,0000.0,0006.82,0003.23,0001.97
2024-04-03 18:50:00,SystemResetWarning,0829.7,5.00,000.00,025.1,024.5,000.0,033.4,026.9,010.8,0000.0,0006.75,0003.21,0001.97
2024-04-03 18:51:00,SystemResetWarning,0829.7,4.99,000.00,025.1,024.6,000.0,033.4,027.0,010.3,0000.0,0006.11,0003.17,0001.96
2024-04-03 18:52:00,SystemResetWarning,0829.7,4.99,000.00,025.2,024.6,000.0,033.5,027.0,010.9,0000.0,0006.21,0003.18,0001.97
2024-04-03 18:53:00,SystemResetWarning,0829.7,5.00,000.00,025.2,024.6,000.0,033.5,027.0,010.5,0000.0,0006.15,0003.17,0001.98
2024-04-03 18:54:00,SystemResetWarning,0829.7,5.01,000.00,025.2,024.6,000.0,033.5,027.0,010.2,0000.0,0006.22,0003.18,0001.99
2024-04-03 18:55:00,SystemResetWarning,0829.7,5.01,000.00,025.2,024.7,000.0,033.5,027.0,010.3,0000.0,0006.31,0003.21,0002.03
2024-04-03 18:56:00,SystemResetWarning,0829.7,5.01,000.00,025.2,024.7,000.0,033.5,027.1,010.0,0000.0,0006.36,0003.22,0002.04
2024-04-03 18:57:00,SystemResetWarning,0829.7,4.99,000.00,025.3,024.7,000.0,033.5,027.1,010.3,0000.0,0006.37,0003.21,0002.05
2024-04-03 18:58:00,SystemResetWarning,0829.7,4.99,000.00,025.3,024.7,000.0,033.6,027.1,010.8,0000.0,0006.45,0003.21,0002.05
2024-04-03 18:59:00,SystemResetWarning,0829.7,4.99,000.00,025.3,024.7,000.0,033.6,027.1,010.2,0000.0,0006.52,0003.20,0002.08
